Location: Asheville, NC
(35.6000°N, 82.5500°W)
Time: 10:45:47

KAITUO 1B - Pass Details

Date: 15 March 2018
Orbit: 500 x 520 km, 97.5° (Epoch: 20 March)

Event Time Altitude Azimuth Distance (km) Brightness Sun altitude
Rises 07:08:19 0° 25° (NNE) 2,641 ? -7.5°
Reaches altitude 10° 07:10:40 10° 38° (NE) 1,752 ? -7.0°
Maximum altitude 07:13:53 26° 97° (E) 1,036 ? -6.3°
Drops below altitude 10° 07:17:06 10° 155° (SSE) 1,743 ? -5.7°
Sets 07:19:25 0° 168° (SSE) 2,626 ? -5.2°
